Temperature
10 11 11 11 12 11 11 12 12 14 14 16 17 14 15 17 17 17 17 17 17 17 16 15 14 13 12 10 9 7 5 3 3 2 1 0 -0 -1 -2 -2 -3 -3 -4 -4
9 10 10 10 11 12 12 12 12 13 14 16 16 15 15 15 15 16 17 17 17 17 16 15 15 14 13 11 9 7 5 4 3 2 1 0 -0 -1 -2 -2 -3 -3 -4 -4
8 10 10 10 12 12 11 10 11 12 14 15 13 12 13 15 16 16 16 17 17 17 16 16 15 14 13 12 10 8 6 4 3 2 1 0 -1 -1 -1 -2 -3 -3 -4 -4
6 9 10 13 13 12 12 12 11 12 13 13 12 14 15 15 16 16 17 17 17 16 15 15 14 14 13 11 10 8 6 4 3 2 1 0 -1 -1 -1 -2 -3 -3 -4 -4
6 7 9 10 11 11 11 11 12 12 13 13 13 12 15 18 17 17 17 16 16 15 14 14 14 13 12 11 9 8 6 5 3 2 1 0 -1 -1 -1 -2 -2 -3 -3 -4
5 6 8 12 13 13 13 12 14 12 11 12 11 10 13 17 16 16 15 15 14 14 14 14 13 12 11 10 9 8 7 6 4 2 1 0 -0 -1 -2 -2 -2 -3 -3 -4
5 6 8 10 11 12 12 13 14 14 14 13 11 12 15 15 15 15 14 14 14 13 13 13 12 11 11 10 9 9 7 5 3 2 1 0 -1 -1 -2 -2 -2 -3 -3 -4
4 5 7 10 10 11 13 14 15 15 15 14 14 14 14 14 14 14 13 13 13 12 12 12 11 11 10 10 9 7 6 4 3 2 1 -0 -1 -1 -2 -2 -2 -3 -3 -4
7 10 11 12 12 14 13 13 14 14 14 13 13 13 13 13 13 13 12 12 12 11 11 11 11 10 9 9 8 6 5 4 3 2 1 -0 -1 -1 -2 -2 -2 -3 -3 -4
6 7 10 12 12 13 14 13 13 13 13 12 12 12 12 12 12 12 11 11 11 11 11 11 10 10 9 8 6 5 4 3 2 1 0 -0 -1 -1 -2 -2 -2 -3 -3 -4
8 8 10 11 13 13 13 12 12 12 11 11 11 11 11 11 11 10 10 10 10 10 10 10 10 9 9 7 6 5 3 2 1 1 0 -0 -1 -1 -1 -2 -2 -3 -3 -4
9 10 9 10 11 11 11 10 10 10 10 10 10 9 9 9 9 9 9 9 9 9 9 9 9 9 8 7 5 4 2 1 1 0 -0 -1 -1 -1 -2 -2 -3 -3 -4 -4
10 10 10 10 10 10 9 9 9 9 8 8 8 8 8 8 8 8 8 8 8 8 8 8 8 8 7 6 5 3 2 1 0 -0 -1 -1 -1 -1 -2 -2 -3 -3 -4 -4
9 9 8 8 8 8 8 8 8 8 7 7 7 7 7 7 7 7 7 7 7 7 8 8 7 7 6 5 4 3 1 0 -1 -1 -1 -1 -1 -1 -1 -2 -3 -3 -4 -4
7 7 7 7 7 7 7 6 6 6 6 6 6 6 5 5 5 6 6 6 6 6 7 7 7 7 5 4 3 2 1 -1 -2 -2 -2 -2 -2 -1 -2 -2 -3 -3 -4 -4
6 6 6 6 6 6 6 5 5 5 5 5 5 4 4 4 4 5 5 5 5 5 6 6 6 5 4 4 3 1 -0 -1 -3 -3 -3 -3 -3 -2 -2 -2 -3 -3 -4 -4
5 5 5 5 5 5 4 4 4 4 4 4 3 3 3 3 3 4 4 4 4 4 5 5 5 4 4 3 2 1 -1 -2 -4 -5 -4 -4 -3 -2 -2 -2 -3 -3 -3 -4
5 5 5 4 4 4 4 4 3 3 3 3 2 2 2 2 2 2 2 2 3 3 4 4 4 3 3 2 1 -0 -1 -2 -4 -5 -5 -4 -4 -3 -2 -2 -3 -3 -3 -4
5 4 4 4 3 3 3 3 3 2 2 2 1 1 1 1 1 1 1 1 1 2 3 3 3 3 2 2 0 -1 -2 -3 -4 -5 -5 -5 -5 -4 -3 -3 -3 -3 -3 -4
4 4 3 3 3 3 3 3 2 2 2 1 1 1 0 1 0 0 0 0 1 1 1 1 1 2 1 1 -1 -2 -3 -4 -5 -5 -6 -6 -5 -4 -4 -3 -3 -3 -4 -4
4 3 3 3 3 3 3 2 2 1 1 1 0 -0 -0 -0 -0 -0 -0 -0 1 1 1 1 1 1 0 -0 -2 -3 -4 -5 -5 -6 -6 -6 -6 -5 -4 -3 -3 -3 -4 -4
3 3 3 2 2 2 2 2 1 1 0 0 -0 -1 -1 -1 -1 -1 -1 -1 -0 -0 -0 0 0 -0 -0 -1 -2 -3 -4 -5 -6 -7 -7 -6 -6 -5 -4 -4 -3 -3 -3 -4
2 2 2 1 1 1 1 1 1 0 -0 -1 -1 -1 -1 -1 -1 -2 -2 -1 -1 -1 -1 -1 -0 -1 -1 -2 -3 -4 -5 -6 -7 -7 -7 -6 -6 -5 -4 -4 -3 -3 -3 -4
1 1 1 1 0 0 0 0 -0 -1 -1 -1 -1 -1 -2 -2 -2 -1 -1 -1 -1 -1 -1 -1 -1 -1 -2 -3 -4 -4 -5 -6 -7 -7 -7 -7 -6 -6 -4 -4 -4 -3 -3 -4
0 0 -0 -0 -1 -1 -1 -1 -1 -1 -2 -2 -2 -1 -1 -2 -2 -1 -1 -1 -1 -1 -1 -1 -1 -2 -2 -3 -4 -5 -5 -6 -7 -7 -7 -7 -7 -6 -5 -4 -4 -3 -3 -4
-1 -1 -1 -1 -1 -1 -1 -2 -2 -2 -2 -3 -2 -2 -2 -1 -1 -1 -1 -1 -1 -2 -2 -2 -2 -2 -3 -3 -4 -5 -5 -6 -7 -7 -7 -7 -7 -6 -5 -4 -4 -4 -4 -4
-2 -2 -2 -1 -1 -2 -2 -2 -3 -3 -3 -3 -3 -2 -2 -2 -1 -1 -1 -1 -1 -2 -2 -2 -2 -3 -3 -4 -5 -5 -6 -6 -7 -7 -7 -7 -6 -6 -5 -4 -4 -4 -4 -4
Wind_Speed
11 11 7 9 12 11 15 15 16 20 23 29 26 14 12 12 11 11 12 11 12 12 12 12 14 15 16 16 16 16 16 16 16 13 11 10 10 9 9 8 8 8 8 9
7 10 10 11 17 20 19 16 20 25 28 29 21 11 11 12 12 12 13 12 12 12 12 14 16 16 16 17 17 16 17 17 14 12 12 11 11 10 9 8 8 7 8 9
7 6 6 10 15 17 11 10 11 18 21 20 14 13 12 11 11 12 13 12 12 12 14 15 16 17 18 18 15 17 17 15 14 14 13 13 12 10 10 9 8 8 8 9
4 1 11 12 6 10 11 14 15 17 20 16 13 10 10 10 11 13 12 12 12 11 11 12 12 13 13 13 15 17 17 15 15 14 14 12 11 11 10 8 7 7 8 9
4 6 12 10 9 7 9 11 12 17 21 17 7 7 9 9 8 11 12 11 11 10 10 9 10 11 12 14 15 16 18 17 16 16 14 13 13 12 10 8 8 8 7 8
5 6 10 9 5 2 2 9 9 7 11 7 2 3 7 8 6 8 10 9 9 9 7 9 9 10 14 16 17 20 20 18 16 16 15 15 14 12 9 8 8 7 7 7
9 10 12 10 4 5 5 9 5 3 4 3 5 8 9 10 10 10 11 12 11 10 9 10 8 11 15 16 21 19 15 14 15 16 16 14 12 10 9 9 7 7 7 7
8 8 12 8 7 9 9 5 6 7 6 7 9 12 12 12 12 12 13 12 11 10 11 9 8 12 16 19 17 12 13 14 15 15 13 12 12 10 9 9 8 7 6 6
12 12 6 6 10 8 5 8 9 8 10 10 11 12 14 12 12 12 12 12 10 10 12 10 9 13 18 16 11 12 14 15 14 14 13 12 13 12 9 9 7 7 6 6
9 11 11 11 10 11 12 12 12 12 13 11 13 14 15 14 12 11 12 12 10 10 11 13 10 14 17 11 11 14 15 15 14 14 14 13 11 11 10 10 9 8 7 6
18 14 12 13 11 10 10 11 13 14 13 12 12 13 13 12 12 11 11 10 9 10 12 15 11 13 13 10 13 15 15 15 14 14 14 13 13 12 12 11 10 9 8 6
28 18 16 15 12 15 16 15 14 13 12 11 10 11 11 11 10 10 11 11 11 11 13 15 12 12 11 12 15 16 14 14 13 12 12 12 11 10 16 14 16 17 14 10
27 21 20 18 13 12 11 11 10 10 10 10 9 9 9 10 9 10 12 13 13 13 14 14 12 12 10 12 15 17 16 15 13 13 13 13 12 12 10 12 16 16 16 15
16 15 17 15 12 10 9 9 7 7 7 7 8 8 9 9 11 13 14 13 13 14 15 13 13 13 9 11 15 16 15 17 16 13 13 13 13 12 11 10 10 8 10 14
12 12 12 9 6 5 5 5 6 8 9 9 8 10 11 12 13 15 15 14 13 14 15 12 13 13 8 11 15 16 15 12 13 12 12 12 11 11 10 11 9 7 5 6
8 5 3 2 3 4 5 6 6 8 9 10 11 12 13 13 14 15 15 13 13 16 16 14 15 13 8 10 13 13 13 20 17 12 12 12 11 11 11 10 10 9 8 7
3 1 2 3 3 3 4 5 6 8 9 11 13 14 14 14 15 15 15 13 13 15 15 14 15 12 8 10 13 11 11 15 23 14 12 13 12 12 12 11 10 10 8 10
4 4 3 2 2 5 7 8 9 10 11 13 14 13 14 15 16 17 16 15 15 16 15 13 11 10 8 9 11 10 11 12 12 12 12 12 12 11 11 11 11 10 7 9
3 3 3 4 6 7 8 10 11 11 12 12 13 14 15 15 15 16 15 14 15 17 14 11 15 12 9 10 12 9 11 12 12 12 12 16 15 11 11 11 10 10 9 9
3 5 6 7 8 8 9 11 12 12 12 13 14 15 16 15 15 15 14 14 13 12 12 14 13 10 8 9 13 9 12 13 14 13 13 13 13 12 11 11 10 10 10 9
7 8 8 9 10 11 11 12 13 14 14 13 14 16 17 17 15 14 14 15 14 12 12 16 10 8 7 8 13 9 12 13 13 13 13 13 13 13 12 12 11 11 10 9
8 8 10 11 12 14 13 12 13 15 15 14 15 15 16 17 16 14 13 13 14 17 13 9 8 10 10 11 8 10 12 13 13 12 12 13 13 13 12 12 11 11 10 9
9 10 12 13 14 15 15 14 13 14 15 15 16 17 17 16 13 14 16 12 11 17 13 10 13 17 16 9 7 10 12 13 13 13 13 12 12 12 12 13 11 10 10 9
11 12 13 13 13 14 16 15 13 13 14 15 14 15 15 14 13 11 12 17 20 21 13 14 19 18 15 6 8 10 12 12 12 12 12 12 11 11 10 11 10 10 9 10
12 13 12 13 13 13 14 14 14 13 13 12 13 14 12 11 13 14 13 14 19 20 12 15 19 17 10 6 8 10 11 12 12 12 12 12 11 11 10 10 10 10 10 10
12 12 12 12 12 12 12 12 12 12 13 14 14 12 11 11 12 13 12 13 14 17 13 10 9 10 7 7 8 10 11 13 14 13 12 12 12 11 10 10 11 10 9 9
11 11 10 11 11 10 10 11 12 13 13 14 16 15 13 13 12 13 13 12 11 11 9 8 7 7 6 6 8 10 11 11 12 11 11 11 11 10 10 11 10 9 9 9
Wind_Direction
254 262 247 242 249 231 220 226 239 257 258 268 273 271 260 261 267 268 262 253 241 234 228 220 216 213 210 207 201 196 195 200 205 202 199 200 205 211 216 224 238 244 255 263
272 262 250 254 255 250 243 238 242 257 267 267 276 277 266 265 266 266 262 257 250 240 232 225 220 216 211 208 202 195 199 203 200 193 195 201 206 210 217 227 237 246 255 263
264 282 314 266 240 238 228 216 216 245 257 270 278 271 264 265 262 258 261 263 258 247 237 232 224 215 212 208 197 197 202 201 195 193 199 203 206 211 220 227 235 246 254 260
260 306 243 248 233 225 236 248 231 245 260 268 266 279 270 257 256 264 265 266 265 256 247 237 225 215 209 198 196 200 203 200 195 193 199 199 202 214 221 223 232 243 253 259
208 244 268 287 273 220 219 269 246 244 262 273 297 315 294 268 240 249 261 266 268 264 255 244 224 207 196 199 200 203 205 203 197 194 194 196 206 216 218 219 231 238 247 256
201 227 251 253 251 167 138 285 282 250 266 294 62 325 288 304 308 286 285 284 283 281 267 250 228 193 196 204 205 210 209 203 195 192 193 199 207 211 211 216 229 236 246 249
221 237 259 259 242 143 213 256 309 340 311 296 220 239 267 301 303 295 292 289 285 277 265 253 220 193 207 212 216 215 203 193 190 192 196 199 200 203 206 213 223 232 245 251
198 222 254 235 159 197 233 305 317 319 312 292 272 276 282 287 287 290 291 290 286 276 270 257 214 203 217 224 222 199 188 189 191 191 192 194 195 200 203 208 220 232 241 254
207 229 259 196 212 247 286 288 289 293 295 294 287 285 287 286 286 288 286 286 282 271 273 265 225 212 227 232 203 183 186 191 190 189 192 190 192 197 199 205 215 227 230 246
253 256 264 268 258 262 261 263 274 282 287 288 283 285 288 289 289 289 286 285 283 279 275 273 245 225 233 225 186 185 191 192 189 189 191 193 194 197 199 202 208 217 223 233
267 271 278 263 260 268 281 290 293 291 290 286 282 282 284 288 289 289 289 289 286 278 275 275 263 240 233 209 186 191 194 192 191 192 192 194 198 202 202 206 202 204 212 214
269 272 272 281 283 287 289 289 291 295 299 300 294 287 290 292 291 291 293 292 291 285 279 279 271 255 233 204 194 194 196 195 193 192 191 193 195 205 216 212 219 222 219 214
263 271 273 282 285 284 285 291 296 298 299 301 303 298 296 294 294 296 296 297 296 292 287 285 278 265 237 204 198 199 200 195 193 192 191 192 193 195 200 213 220 224 226 228
263 273 277 282 287 295 299 304 311 316 316 310 306 307 305 300 301 303 300 298 298 295 292 288 280 271 242 207 203 205 202 198 194 193 192 192 193 194 191 189 196 213 222 224
266 266 273 287 305 329 338 348 356 345 334 327 319 314 310 307 303 300 298 298 298 296 294 291 284 278 246 209 205 205 202 199 195 190 190 191 190 190 189 189 192 191 184 212
278 290 305 342 4 356 359 2 349 328 318 311 308 306 301 296 293 294 295 295 297 298 298 295 288 281 251 213 207 205 204 203 194 188 187 189 188 189 190 190 190 191 195 196
260 325 19 21 1 341 325 309 299 297 299 299 298 297 299 299 298 298 299 299 293 291 290 287 285 283 254 216 206 204 198 202 200 194 191 190 190 192 192 189 190 194 197 194
130 142 158 198 270 293 298 296 292 292 293 291 293 296 298 300 299 299 300 301 302 301 296 286 281 281 258 223 208 201 195 194 194 190 191 193 194 194 192 191 191 191 187 196
142 175 220 248 261 268 276 284 287 288 290 292 294 295 294 293 292 293 295 298 299 300 299 297 301 295 263 229 211 199 193 192 193 190 189 196 197 195 193 193 191 189 185 186
250 255 261 270 275 277 285 290 292 293 293 294 295 296 297 296 296 296 297 294 288 282 284 293 297 286 264 237 217 198 194 193 193 192 190 192 193 194 195 195 191 188 187 187
277 283 290 296 299 296 293 294 297 298 298 295 294 295 296 297 296 295 296 298 294 289 290 295 293 278 259 240 221 198 195 194 194 193 192 193 194 194 194 194 192 190 189 188
288 293 298 300 301 301 298 295 294 295 297 296 294 294 296 298 298 295 284 283 288 293 297 289 284 278 271 249 213 198 196 196 195 194 193 193 193 194 195 194 192 192 189 185
285 288 291 293 294 296 297 296 293 293 294 295 296 296 295 293 294 295 298 293 291 295 297 283 283 284 279 251 210 200 197 196 196 195 194 194 195 195 195 193 192 189 184 181
286 287 286 287 291 294 297 296 293 292 289 289 288 286 287 293 293 284 281 290 296 297 294 287 289 286 279 241 207 200 197 196 195 194 194 193 193 194 193 190 188 185 183 178
277 280 284 288 292 293 293 295 297 295 293 294 290 287 283 280 284 290 290 290 293 297 294 291 290 285 272 233 207 199 194 194 193 193 193 191 192 192 192 189 186 183 181 181
275 279 281 279 281 286 290 293 295 298 300 301 299 296 292 289 285 286 288 287 286 291 292 285 279 275 259 232 208 196 191 193 198 197 191 189 189 189 190 188 181 182 180 178
274 276 281 284 283 280 281 286 291 294 295 297 299 300 298 296 294 292 290 291 290 287 285 280 273 262 249 226 206 193 188 187 188 187 185 186 186 187 187 182 181 178 174 173
Height
1540 1534 1535 1533 1530 1529 1529 1522 1520 1501 1493 1477 1468 1468 1467 1465 1463 1461 1458 1457 1455 1453 1452 1450 1448 1447 1445 1445 1445 1446 1447 1448 1450 1454 1456 1457 1458 1459 1458 1457 1456 1454 1451 1448
1538 1530 1530 1529 1521 1516 1513 1510 1504 1494 1482 1465 1463 1463 1461 1459 1457 1455 1452 1451 1450 1448 1446 1444 1442 1440 1438 1436 1436 1437 1438 1439 1442 1446 1448 1449 1450 1451 1451 1451 1450 1448 1446 1443
1540 1530 1526 1524 1506 1500 1500 1495 1493 1488 1471 1459 1460 1458 1456 1454 1452 1450 1448 1447 1445 1443 1441 1438 1436 1433 1430 1429 1428 1428 1428 1430 1433 1437 1439 1441 1443 1444 1444 1444 1444 1442 1440 1437
1541 1531 1530 1499 1487 1487 1487 1481 1479 1472 1462 1458 1456 1454 1452 1450 1448 1446 1444 1443 1441 1439 1436 1433 1430 1426 1424 1422 1420 1419 1419 1421 1424 1427 1430 1433 1436 1437 1438 1438 1437 1436 1434 1431
1541 1535 1514 1498 1486 1483 1484 1477 1466 1464 1457 1453 1454 1452 1446 1445 1445 1444 1442 1440 1437 1434 1430 1427 1423 1419 1416 1413 1411 1409 1409 1411 1414 1418 1422 1425 1427 1430 1431 1431 1431 1430 1428 1425
1537 1534 1517 1489 1479 1477 1479 1478 1460 1458 1455 1454 1455 1457 1449 1445 1443 1441 1439 1436 1432 1428 1424 1419 1416 1412 1407 1404 1401 1399 1399 1401 1405 1409 1413 1416 1419 1422 1424 1425 1425 1424 1422 1420
1528 1523 1500 1483 1477 1478 1484 1472 1459 1456 1455 1454 1454 1452 1446 1443 1440 1437 1434 1430 1426 1421 1416 1412 1408 1403 1398 1395 1391 1391 1392 1394 1396 1400 1405 1409 1413 1415 1417 1418 1418 1418 1416 1415
1521 1520 1500 1473 1476 1475 1466 1459 1457 1455 1454 1452 1449 1445 1441 1437 1433 1430 1426 1422 1418 1413 1408 1404 1400 1395 1389 1385 1384 1385 1384 1386 1388 1393 1397 1401 1405 1408 1410 1411 1412 1411 1410 1409
1495 1483 1471 1469 1467 1464 1462 1459 1456 1453 1451 1448 1444 1439 1435 1430 1426 1422 1419 1414 1410 1404 1399 1395 1391 1386 1381 1378 1378 1376 1376 1377 1380 1385 1389 1393 1397 1400 1402 1404 1405 1405 1405 1404
1482 1471 1466 1463 1461 1460 1458 1454 1451 1449 1446 1442 1438 1433 1428 1423 1419 1415 1411 1407 1402 1396 1391 1386 1382 1377 1373 1371 1369 1368 1367 1369 1372 1375 1380 1384 1388 1391 1394 1396 1398 1398 1398 1398
1469 1464 1461 1456 1456 1454 1451 1448 1446 1443 1440 1436 1431 1425 1421 1416 1412 1408 1403 1399 1394 1389 1383 1378 1373 1368 1365 1362 1359 1358 1358 1359 1362 1366 1370 1374 1379 1383 1386 1389 1391 1392 1393 1392
1458 1456 1454 1448 1450 1449 1444 1441 1438 1434 1430 1428 1424 1419 1415 1410 1406 1401 1396 1392 1386 1381 1375 1370 1365 1359 1356 1353 1350 1349 1348 1350 1352 1356 1360 1365 1370 1375 1379 1383 1385 1385 1386 1386
1449 1447 1445 1441 1441 1439 1436 1433 1431 1428 1424 1421 1417 1414 1409 1404 1399 1395 1390 1384 1379 1373 1367 1361 1356 1351 1347 1344 1341 1339 1339 1340 1343 1346 1350 1355 1360 1365 1370 1375 1377 1379 1380 1380
1443 1441 1436 1435 1433 1432 1429 1427 1424 1421 1418 1415 1411 1407 1403 1398 1392 1387 1382 1376 1371 1365 1359 1353 1347 1343 1339 1335 1332 1331 1331 1332 1334 1337 1341 1346 1351 1357 1362 1366 1369 1371 1374 1375
1434 1433 1431 1429 1427 1425 1423 1421 1419 1416 1413 1409 1405 1401 1396 1390 1385 1379 1374 1369 1362 1356 1351 1346 1340 1335 1331 1327 1324 1322 1323 1324 1325 1328 1333 1339 1344 1349 1354 1358 1362 1365 1367 1369
1428 1426 1425 1424 1423 1422 1420 1417 1415 1412 1408 1404 1399 1394 1389 1383 1377 1371 1366 1361 1354 1348 1343 1338 1333 1328 1323 1319 1315 1314 1314 1316 1319 1321 1325 1330 1335 1340 1345 1350 1354 1357 1360 1362
1423 1422 1422 1422 1421 1419 1417 1415 1411 1407 1402 1397 1392 1386 1380 1374 1367 1361 1356 1352 1346 1340 1336 1330 1325 1320 1315 1311 1308 1306 1306 1309 1312 1314 1317 1322 1327 1332 1337 1342 1346 1350 1354 1356
1422 1422 1421 1420 1418 1416 1413 1409 1405 1401 1396 1390 1384 1378 1372 1366 1359 1353 1347 1342 1336 1331 1328 1323 1317 1312 1308 1303 1300 1299 1299 1300 1304 1306 1310 1315 1320 1325 1330 1335 1340 1344 1347 1351
1421 1420 1419 1417 1414 1411 1407 1402 1398 1393 1388 1382 1376 1369 1364 1358 1352 1345 1339 1334 1328 1322 1318 1315 1310 1305 1300 1296 1293 1292 1292 1294 1297 1300 1303 1308 1314 1318 1323 1329 1333 1337 1341 1344
1419 1417 1414 1411 1408 1404 1399 1395 1390 1385 1379 1374 1367 1360 1354 1348 1343 1337 1331 1326 1321 1316 1311 1306 1302 1297 1293 1289 1286 1285 1285 1287 1290 1293 1297 1301 1306 1311 1317 1322 1327 1331 1335 1338
1414 1411 1408 1404 1400 1396 1392 1387 1381 1375 1370 1365 1359 1352 1345 1340 1335 1329 1323 1316 1312 1309 1303 1298 1294 1290 1286 1282 1280 1278 1278 1280 1283 1286 1290 1295 1299 1305 1310 1315 1320 1325 1329 1332
1408 1405 1401 1397 1392 1387 1383 1378 1373 1366 1360 1355 1350 1344 1337 1331 1326 1320 1315 1310 1304 1300 1295 1290 1286 1282 1278 1275 1273 1272 1272 1274 1277 1280 1284 1288 1293 1298 1303 1309 1314 1319 1323 1327
1402 1398 1394 1389 1384 1378 1373 1368 1364 1358 1352 1346 1341 1335 1330 1324 1319 1313 1305 1301 1297 1292 1287 1282 1278 1275 1271 1268 1266 1265 1266 1268 1270 1274 1278 1282 1287 1292 1298 1303 1308 1313 1318 1322
1394 1389 1385 1380 1375 1368 1362 1358 1354 1348 1343 1338 1333 1328 1322 1316 1309 1305 1300 1294 1289 1284 1278 1274 1270 1267 1264 1261 1259 1259 1259 1261 1265 1269 1273 1277 1282 1287 1293 1298 1303 1308 1313 1317
1384 1380 1375 1370 1365 1359 1354 1349 1343 1338 1333 1328 1323 1319 1314 1309 1303 1296 1291 1286 1280 1275 1270 1266 1262 1259 1256 1253 1252 1252 1253 1255 1258 1263 1267 1272 1276 1282 1287 1293 1298 1303 1308 1313
1374 1369 1365 1361 1357 1352 1346 1341 1335 1330 1325 1319 1313 1309 1304 1300 1294 1288 1283 1277 1272 1267 1262 1258 1254 1251 1248 1246 1245 1245 1246 1249 1253 1257 1262 1266 1271 1277 1283 1289 1294 1299 1304 1309
1362 1359 1355 1350 1346 1343 1338 1333 1327 1322 1317 1312 1305 1300 1296 1290 1285 1280 1274 1269 1264 1259 1255 1251 1247 1244 1241 1240 1239 1240 1241 1244 1248 1252 1257 1262 1267 1273 1279 1285 1290 1296 1301 1305